Weather History for KHUT - March, 2014

Change the Weather History Date:

Sunday, March 23, 2014

  Actual Average Record
Temperature  
Mean Temperature 32 °F -  
Max Temperature 45 °F 58 °F 78 °F (2009)
Min Temperature 19 °F 33 °F 19 °F (2014)
Degree Days  
Heating Degree Days 33    
Moisture  
Dew Point 16 °F    
Average Humidity 56    
Maximum Humidity 85    
Minimum Humidity 32    
Precipitation  
Precipitation 0.00 in - - ()
Sea Level Pressure  
Sea Level Pressure 30.42 in    
Wind  
Wind Speed 11 mph (ENE)    
Max Wind Speed 16 mph    
Max Gust Speed 23 mph    
Visibility 10 miles    
Events      
Averages and records for this station are not official NWS values.
T = Trace of Precipitation, MM = Missing Value Source: NWS Daily Summary

Daily Weather History Graph

Daily Weather History Graph

Search for Another Location

Airport or City:

Trip Planner

Search our weather history database for the weather conditions in past years. The results will help you decide how hot, cold, wet, or windy it might be!

Date:

Astronomy

Mar. 23, 2014 Rise Set
Actual Time 7:30 AM CDT 7:46 PM CDT
Civil Twilight 7:03 AM CDT 8:12 PM CDT
Nautical Twilight 6:33 AM CDT 8:43 PM CDT
Astronomical Twilight 6:01 AM CDT 9:14 PM CDT
Moon 1:59 AM CDT (3/23) 12:17 PM CDT (3/23)
Length of Visible Light 13h 08m
Length of Day
12h 15m
Waning Gibbous, 54% of the Moon is Illuminated
Mar 23
Waning Gibbous
Mar 23
Last Quarter
Mar 30
New
Apr 7
First Quarter
Apr 15
Full

Hourly Weather History & Observations

Time (CDT) Temp. Windchill Dew Point Humidity Pressure Visibility Wind Dir Wind Speed Gust Speed Precip Events Conditions
12:52 AM 27.0 °F 15.2 °F 17.1 °F 66% 30.49 in 10.0 mi North 15.0 mph 21.9 mph N/A   Clear
1:52 AM 26.1 °F 14.5 °F 17.1 °F 69% 30.50 in 10.0 mi NNE 13.8 mph 23.0 mph N/A   Partly Cloudy
2:52 AM 25.0 °F 13.6 °F 18.0 °F 75% 30.51 in 10.0 mi North 12.7 mph - N/A   Clear
3:52 AM 24.1 °F 11.0 °F 17.1 °F 75% 30.50 in 10.0 mi North 16.1 mph - N/A   Partly Cloudy
4:33 AM 24.1 °F 12.5 °F 17.1 °F 75% 30.48 in 10.0 mi North 12.7 mph - N/A   Mostly Cloudy
4:52 AM 24.1 °F 11.5 °F 17.1 °F 75% 30.50 in 10.0 mi NNE 15.0 mph 19.6 mph N/A   Overcast
5:52 AM 25.0 °F 14.2 °F 17.1 °F 72% 30.51 in 10.0 mi NNE 11.5 mph 19.6 mph N/A   Overcast
6:32 AM 21.9 °F 13.4 °F 16.0 °F 78% 30.49 in 10.0 mi NNE 6.9 mph - N/A   Scattered Clouds
6:52 AM 21.0 °F 11.4 °F 15.1 °F 78% 30.53 in 10.0 mi NNE 8.1 mph - N/A   Clear
7:52 AM 19.9 °F 10.1 °F 16.0 °F 85% 30.55 in 10.0 mi North 8.1 mph - N/A   Clear
8:52 AM 23.0 °F 12.4 °F 14.0 °F 68% 30.55 in 10.0 mi NNE 10.4 mph - N/A   Clear
9:52 AM 28.0 °F 18.6 °F 12.9 °F 53% 30.54 in 10.0 mi NNE 10.4 mph - N/A   Clear
10:52 AM 30.9 °F 23.5 °F 10.0 °F 42% 30.54 in 10.0 mi East 8.1 mph - N/A   Clear
11:52 AM 34.0 °F 28.8 °F 10.9 °F 38% 30.52 in 10.0 mi NNE 5.8 mph - N/A   Clear
12:52 PM 37.9 °F 32.1 °F 12.0 °F 35% 30.48 in 10.0 mi ENE 8.1 mph - N/A   Clear
1:52 PM 39.9 °F 36.7 °F 12.9 °F 33% 30.44 in 10.0 mi Variable 4.6 mph - N/A   Clear
2:52 PM 41.0 °F - 14.0 °F 33% 30.39 in 10.0 mi Calm Calm - N/A   Clear
3:52 PM 42.1 °F 38.4 °F 15.1 °F 34% 30.35 in 10.0 mi South 5.8 mph - N/A   Clear
4:52 PM 44.1 °F 41.5 °F 16.0 °F 32% 30.32 in 10.0 mi Variable 4.6 mph - N/A   Clear
5:52 PM 45.0 °F 41.2 °F 17.1 °F 33% 30.29 in 10.0 mi SSE 6.9 mph - N/A   Clear
6:52 PM 43.0 °F 38.8 °F 17.1 °F 35% 30.27 in 10.0 mi SSE 6.9 mph - N/A   Clear
7:52 PM 39.0 °F 32.8 °F 19.0 °F 45% 30.26 in 10.0 mi South 9.2 mph - N/A   Clear
8:52 PM 35.1 °F 27.9 °F 19.0 °F 52% 30.26 in 10.0 mi South 9.2 mph - N/A   Clear
9:52 PM 33.1 °F 26.9 °F 19.0 °F 56% 30.26 in 10.0 mi South 6.9 mph - N/A   Clear
10:52 PM 30.9 °F 24.3 °F 19.0 °F 61% 30.26 in 10.0 mi South 6.9 mph - N/A   Clear
11:52 PM 30.9 °F 25.2 °F 19.9 °F 64% 30.24 in 10.0 mi SSE 5.8 mph - N/A   Clear